Regional Weather Roundup
Issued by NWS Burlington, VT

Home | Current Version | Previous Version | Text Only | Print | Product List | Glossary On
Versions: 1 2 3 4 5 6 7 8 9 10 11 12 13 14 15 16 17 18 19 20 21 22 23 24 25 26 27 28 29 30 31 32 33 34 35 36 37 38 39 40 41 42 43 44 45 46 47 48 49 50
000
ASUS41 KBTV 290630
RWRBTV
VERMONT REGIONAL WEATHER ROUNDUP
NATIONAL WEATHER SERVICE BURLINGTON VT
200 AM EDT FRI APR 29 2016

NOTE: "FAIR" INDICATES FEW OR NO CLOUDS BELOW 12,000 FEET WITH NO
SIGNIFICANT WEATHER AND/OR OBSTRUCTIONS TO VISIBILITY.

* THESE REPORTS ARE NOT UNDER NWS QUALITY CONTROL AND/OR DO NOT
  REPORT WEATHER SUCH AS PRECIPITATION AND FOG.

VTZ001>019-290700-
_____VERMONT_____


CITY           SKY/WX    TMP DP  RH WIND       PRES   REMARKS
BURLINGTON     FAIR      31  19  61 CALM      30.15S
6HR MIN TEMP:  31; 6HR MAX TEMP:  42;

MONTPELIER     FAIR      26  17  68 CALM      30.17S
6HR MIN TEMP:  26; 6HR MAX TEMP:  40;

MORRISVILLE    FAIR      25  18  74 CALM      30.17F
6HR MIN TEMP:  22; 6HR MAX TEMP:  39;

ST. JOHNSBURY*   N/A     29  19  66 MISG      30.14F
6HR MIN TEMP:  29; 6HR MAX TEMP:  42;

LYNDONVILLE*   FAIR      28  14  55 NW6       30.14F WCI  21
6HR MIN TEMP:  27; 6HR MAX TEMP:  36;

MIDDLEBURY*    FAIR      31  20  63 CALM      30.13S
6HR MIN TEMP:  29; 6HR MAX TEMP:  39;

RUTLAND*       FAIR      30  23  74 CALM      30.11F
6HR MIN TEMP:  30; 6HR MAX TEMP:  43;

SPRINGFIELD    FAIR      38  14  37 CALM      30.13S
6HR MIN TEMP:  38; 6HR MAX TEMP:  51;

HIGHGATE*      FAIR      26  19  74 CALM      30.17S
6HR MIN TEMP:  27; 6HR MAX TEMP:  38;

NEWPORT*       FAIR      26  18  70 CALM      30.15F
6HR MIN TEMP:  25; 6HR MAX TEMP:  35;

BENNINGTON     FAIR      40  22  48 VRB3      30.06S
6HR MIN TEMP:  39; 6HR MAX TEMP:  51;

SUTTON*          N/A     27 N/A N/A MISG        N/A
MT. MANSFIELD*   N/A     21 N/A N/A SW16        N/A  WCI   7

_____LAKE CHAMPLAIN_____


CITY           SKY/WX    TMP DP  RH WIND       PRES   REMARKS
COLCHESTER RF*   N/A     36  28  75 NW12        N/A  WCI  27
DIAMOND ISL*     N/A     39  23  52 NW12        N/A  WCI  32

$$

NYZ007-026>031-035-052-083-087-290700-
_____NORTHERN NEW YORK_____


CITY           SKY/WX    TMP DP  RH WIND       PRES   REMARKS
PLATTSBURGH    CLEAR     29  19  66 CALM      30.16F
6HR MIN TEMP:  28; 6HR MAX TEMP:  40;

SARANAC LAKE   CLEAR     28  15  58 E5        30.06F WCI  23
6HR MIN TEMP:  27; 6HR MAX TEMP:  37;

MASSENA        PTCLDY    32  18  56 E6        30.16S WCI  26
6HR MIN TEMP:  32; 6HR MAX TEMP:  42;

OGDENSBURG*    CLEAR     32  25  74 CALM      30.12S
POTSDAM*       CLEAR    -17 -24  70 E3        30.12
WATERTOWN      PTCLDY    36  20  52 NE9       30.08F WCI  29
6HR MIN TEMP:  36; 6HR MAX TEMP:  45;

FT DRUM        MOCLDY    35  19  53 E6        30.06F WCI  30
6HR MIN TEMP:  35; 6HR MAX TEMP:  43;

ALBANY         CLOUDY    40  18  41 N10       30.09S
6HR MIN TEMP:  39; 6HR MAX TEMP:  54;

GLENS FALLS    CLOUDY    39  17  41 N9        30.11F
6HR MIN TEMP:  37; 6HR MAX TEMP:  46;


$$
NHZ002-005-011-290700-
_____NEW HAMPSHIRE_____


CITY           SKY/WX    TMP DP  RH WIND       PRES   REMARKS
LEBANON        PTCLDY    37  17  44 N6        30.14S
6HR MIN TEMP:  35; 6HR MAX TEMP:  48;

KEENE          CLOUDY    43  21  42 N7        30.09S
6HR MIN TEMP:  41; 6HR MAX TEMP:  54;

MT WASHINGTON  PTCLDY    19   5  53 SW22        N/A  WCI   3
6HR MIN TEMP:  17; 6HR MAX TEMP:  20;

PLYMOUTH       FAIR      29  26  86 CALM      30.15S
6HR MIN TEMP:  29; 6HR MAX TEMP:  46;

WHITEFIELD     CLEAR     30  15  53 N5        30.13S WCI  25
6HR MIN TEMP:  27; 6HR MAX TEMP:  40;


$$

_____REGIONAL QUEBEC LOCATIONS_____


CITY           SKY/WX    TMP DP  RH WIND       PRES   REMARKS
MONTREAL       PTCLDY    36  14  41 NE7       30.18S WCI  30
QUEBEC CITY    CLEAR     27   7  43 N3        30.20S
SHERBROOKE     CLEAR     23  18  80 NE3       30.15F

_____REGIONAL ONTARIO LOCATIONS_____


CITY           SKY/WX    TMP DP  RH WIND       PRES   REMARKS
OTTAWA         PTCLDY    32  18  55 E9        30.14F WCI  24

______KEY______
VSB  - VISIBILITY IN MILES
WCI  - WIND CHILL INDEX
HX   - HEAT INDEX
$$
NNNN



USA.gov is the U.S. government's official web portal to all federal, state and local government web resources and services.